Information on these data can be found in provided Readme document
Contact Info: Zachary Fasnacht (zachary.fasnacht@ssaihq.com); Nickolay Krotkov (nickolay.a.krotkov@nasa.gov); Lok Lamsal (lok.lamsal@nasa.gov)

FillValue: -999.
ScaleFactor: 1e15
Units: molecules/cm^2

Date(yyyy-mm-dd),City,Country,LonCenter,LatCenter,BoundingCoordinates,Median,Q1,Q3,Mean,Baseline_Median,Baseline_Q1,Baseline_Q3,Baseline_Mean,NumGoodSamples,NumTotalSamples
2015-01-01,Ouagadougou,BurkinaFaso,-1.5197,12.3714,[-2.0197000000000003 11.8714 -1.0197 12.8714],0.423,0.07,0.806,0.45,0.552,0.115,0.992,0.556,209.0,526.0
2015-01-02,Ouagadougou,BurkinaFaso,-1.5197,12.3714,[-2.0197000000000003 11.8714 -1.0197 12.8714],0.49,0.086,0.979,0.501,0.556,0.104,1.023,0.556,236.0,515.0
2015-01-03,Ouagadougou,BurkinaFaso,-1.5197,12.3714,[-2.0197000000000003 11.8714 -1.0197 12.8714],0.595,0.22,1.03,0.575,0.568,0.098,1.039,0.575,216.0,538.0
2015-01-04,Ouagadougou,BurkinaFaso,-1.5197,12.3714,[-2.0197000000000003 11.8714 -1.0197 12.8714],0.531,0.2,1.007,0.547,0.506,0.062,1.031,0.544,230.0,508.0
2015-01-05,Ouagadougou,BurkinaFaso,-1.5197,12.3714,[-2.0197000000000003 11.8714 -1.0197 12.8714],0.595,0.2,1.03,0.576,0.575,0.091,1.04,0.57,216.0,543.0
2015-01-06,Ouagadougou,BurkinaFaso,-1.5197,12.3714,[-2.0197000000000003 11.8714 -1.0197 12.8714],0.578,0.196,1.03,0.585,0.525,0.058,1.019,0.548,194.0,519.0
2015-01-07,Ouagadougou,BurkinaFaso,-1.5197,12.3714,[-2.0197000000000003 11.8714 -1.0197 12.8714],0.578,0.2,1.03,0.586,0.527,0.063,0.982,0.522,209.0,533.0
2015-01-08,Ouagadougou,BurkinaFaso,-1.5197,12.3714,[-2.0197000000000003 11.8714 -1.0197 12.8714],0.622,0.275,1.071,0.651,0.54,0.08,0.979,0.532,202.0,532.0
2015-01-09,Ouagadougou,BurkinaFaso,-1.5197,12.3714,[-2.0197000000000003 11.8714 -1.0197 12.8714],0.624,0.275,1.084,0.664,0.603,0.156,1.018,0.585,228.0,525.0
2015-01-10,Ouagadougou,BurkinaFaso,-1.5197,12.3714,[-2.0197000000000003 11.8714 -1.0197 12.8714],0.624,0.275,1.128,0.664,0.587,0.126,1.022,0.576,207.0,498.0
2015-01-11,Ouagadougou,BurkinaFaso,-1.5197,12.3714,[-2.0197000000000003 11.8714 -1.0197 12.8714],0.595,0.2,1.03,0.614,0.609,0.116,1.034,0.587,228.0,476.0
2015-01-12,Ouagadougou,BurkinaFaso,-1.5197,12.3714,[-2.0197000000000003 11.8714 -1.0197 12.8714],0.476,0.039,0.859,0.484,0.594,0.109,0.998,0.573,207.0,502.0
2015-01-13,Ouagadougou,BurkinaFaso,-1.5197,12.3714,[-2.0197000000000003 11.8714 -1.0197 12.8714],0.57,0.052,0.983,0.562,0.612,0.111,1.004,0.588,223.0,478.0
2015-01-14,Ouagadougou,BurkinaFaso,-1.5197,12.3714,[-2.0197000000000003 11.8714 -1.0197 12.8714],0.695,0.061,1.114,0.603,0.625,0.104,1.035,0.595,208.0,506.0
2015-01-15,Ouagadougou,BurkinaFaso,-1.5197,12.3714,[-2.0197000000000003 11.8714 -1.0197 12.8714],0.713,0.109,1.087,0.631,0.632,0.119,1.031,0.601,195.0,489.0
2015-01-16,Ouagadougou,BurkinaFaso,-1.5197,12.3714,[-2.0197000000000003 11.8714 -1.0197 12.8714],0.695,0.109,1.087,0.63,0.614,0.101,1.033,0.585,226.0,499.0
2015-01-17,Ouagadougou,BurkinaFaso,-1.5197,12.3714,[-2.0197000000000003 11.8714 -1.0197 12.8714],0.57,0.093,0.997,0.588,0.608,0.122,1.044,0.597,199.0,496.0
2015-01-18,Ouagadougou,BurkinaFaso,-1.5197,12.3714,[-2.0197000000000003 11.8714 -1.0197 12.8714],0.621,0.109,1.04,0.604,0.63,0.143,1.033,0.602,225.0,482.0
2015-01-19,Ouagadougou,BurkinaFaso,-1.5197,12.3714,[-2.0197000000000003 11.8714 -1.0197 12.8714],0.695,0.109,1.094,0.637,0.65,0.15,1.045,0.623,211.0,504.0
2015-01-20,Ouagadougou,BurkinaFaso,-1.5197,12.3714,[-2.0197000000000003 11.8714 -1.0197 12.8714],0.664,0.109,1.062,0.626,0.605,0.106,1.02,0.587,231.0,472.0
2015-01-21,Ouagadougou,BurkinaFaso,-1.5197,12.3714,[-2.0197000000000003 11.8714 -1.0197 12.8714],0.677,0.132,1.094,0.647,0.613,0.124,1.048,0.598,218.0,505.0
2015-01-22,Ouagadougou,BurkinaFaso,-1.5197,12.3714,[-2.0197000000000003 11.8714 -1.0197 12.8714],0.713,0.188,1.094,0.665,0.621,0.138,1.019,0.594,201.0,482.0
2015-01-23,Ouagadougou,BurkinaFaso,-1.5197,12.3714,[-2.0197000000000003 11.8714 -1.0197 12.8714],0.631,0.132,1.052,0.625,0.613,0.132,1.018,0.592,217.0,496.0
2015-01-24,Ouagadougou,BurkinaFaso,-1.5197,12.3714,[-2.0197000000000003 11.8714 -1.0197 12.8714],0.621,0.137,1.052,0.619,0.593,0.128,1.027,0.595,210.0,494.0
2015-01-25,Ouagadougou,BurkinaFaso,-1.5197,12.3714,[-2.0197000000000003 11.8714 -1.0197 12.8714],0.621,0.161,1.062,0.624,0.598,0.169,0.993,0.609,237.0,525.0
2015-01-26,Ouagadougou,BurkinaFaso,-1.5197,12.3714,[-2.0197000000000003 11.8714 -1.0197 12.8714],0.695,0.216,1.125,0.672,0.588,0.168,1.005,0.603,216.0,535.0
2015-01-27,Ouagadougou,BurkinaFaso,-1.5197,12.3714,[-2.0197000000000003 11.8714 -1.0197 12.8714],0.57,0.109,1.062,0.613,0.569,0.14,1.004,0.597,237.0,513.0
2015-01-28,Ouagadougou,BurkinaFaso,-1.5197,12.3714,[-2.0197000000000003 11.8714 -1.0197 12.8714],0.483,0.148,0.966,0.556,0.554,0.14,1.007,0.588,216.0,538.0
2015-01-29,Ouagadougou,BurkinaFaso,-1.5197,12.3714,[-2.0197000000000003 11.8714 -1.0197 12.8714],0.556,0.212,0.991,0.59,0.574,0.167,0.993,0.599,235.0,513.0
2015-01-30,Ouagadougou,BurkinaFaso,-1.5197,12.3714,[-2.0197000000000003 11.8714 -1.0197 12.8714],0.541,0.216,0.992,0.597,0.55,0.15,0.985,0.581,220.0,542.0
2015-01-31,Ouagadougou,BurkinaFaso,-1.5197,12.3714,[-2.0197000000000003 11.8714 -1.0197 12.8714],0.567,0.237,0.991,0.595,0.543,0.171,0.968,0.59,209.0,524.0
2015-02-01,Ouagadougou,BurkinaFaso,-1.5197,12.3714,[-2.0197000000000003 11.8714 -1.0197 12.8714],0.541,0.201,0.979,0.571,0.514,0.139,0.938,0.563,240.0,534.0
2015-02-02,Ouagadougou,BurkinaFaso,-1.5197,12.3714,[-2.0197000000000003 11.8714 -1.0197 12.8714],0.541,0.168,0.979,0.553,0.517,0.136,0.949,0.554,214.0,532.0
2015-02-03,Ouagadougou,BurkinaFaso,-1.5197,12.3714,[-2.0197000000000003 11.8714 -1.0197 12.8714],0.564,0.176,0.991,0.572,0.519,0.132,0.938,0.542,241.0,519.0
2015-02-04,Ouagadougou,BurkinaFaso,-1.5197,12.3714,[-2.0197000000000003 11.8714 -1.0197 12.8714],0.567,0.168,0.994,0.576,0.523,0.135,0.913,0.554,221.0,542.0
2015-02-05,Ouagadougou,BurkinaFaso,-1.5197,12.3714,[-2.0197000000000003 11.8714 -1.0197 12.8714],0.567,0.207,1.005,0.606,0.527,0.162,0.943,0.569,241.0,511.0
2015-02-06,Ouagadougou,BurkinaFaso,-1.5197,12.3714,[-2.0197000000000003 11.8714 -1.0197 12.8714],0.567,0.186,1.02,0.602,0.546,0.145,0.936,0.563,225.0,544.0
2015-02-07,Ouagadougou,BurkinaFaso,-1.5197,12.3714,[-2.0197000000000003 11.8714 -1.0197 12.8714],0.606,0.227,1.02,0.622,0.525,0.15,0.917,0.551,206.0,519.0
2015-02-08,Ouagadougou,BurkinaFaso,-1.5197,12.3714,[-2.0197000000000003 11.8714 -1.0197 12.8714],0.606,0.22,1.024,0.629,0.5,0.138,0.919,0.541,220.0,534.0
2015-02-09,Ouagadougou,BurkinaFaso,-1.5197,12.3714,[-2.0197000000000003 11.8714 -1.0197 12.8714],0.606,0.227,1.02,0.633,0.486,0.126,0.922,0.537,211.0,532.0
2015-02-10,Ouagadougou,BurkinaFaso,-1.5197,12.3714,[-2.0197000000000003 11.8714 -1.0197 12.8714],0.606,0.245,1.024,0.652,0.504,0.135,0.905,0.539,236.0,525.0
2015-02-11,Ouagadougou,BurkinaFaso,-1.5197,12.3714,[-2.0197000000000003 11.8714 -1.0197 12.8714],0.692,0.282,1.071,0.716,0.523,0.14,0.903,0.543,215.0,496.0
2015-02-12,Ouagadougou,BurkinaFaso,-1.5197,12.3714,[-2.0197000000000003 11.8714 -1.0197 12.8714],0.692,0.269,1.063,0.709,0.529,0.151,0.902,0.547,235.0,472.0
2015-02-13,Ouagadougou,BurkinaFaso,-1.5197,12.3714,[-2.0197000000000003 11.8714 -1.0197 12.8714],0.656,0.257,1.11,0.712,0.532,0.149,0.92,0.557,213.0,497.0
2015-02-14,Ouagadougou,BurkinaFaso,-1.5197,12.3714,[-2.0197000000000003 11.8714 -1.0197 12.8714],0.656,0.245,1.091,0.696,0.584,0.195,0.978,0.593,212.0,469.0
2015-02-15,Ouagadougou,BurkinaFaso,-1.5197,12.3714,[-2.0197000000000003 11.8714 -1.0197 12.8714],0.656,0.245,1.171,0.72,0.602,0.2,1.006,0.62,209.0,497.0
2015-02-16,Ouagadougou,BurkinaFaso,-1.5197,12.3714,[-2.0197000000000003 11.8714 -1.0197 12.8714],0.654,0.255,1.164,0.721,0.626,0.219,1.038,0.646,198.0,482.0
2015-02-17,Ouagadougou,BurkinaFaso,-1.5197,12.3714,[-2.0197000000000003 11.8714 -1.0197 12.8714],0.599,0.245,1.091,0.69,0.66,0.257,1.036,0.669,230.0,491.0
2015-02-18,Ouagadougou,BurkinaFaso,-1.5197,12.3714,[-2.0197000000000003 11.8714 -1.0197 12.8714],0.563,0.161,1.005,0.646,0.688,0.294,1.076,0.698,230.0,488.0
2015-02-19,Ouagadougou,BurkinaFaso,-1.5197,12.3714,[-2.0197000000000003 11.8714 -1.0197 12.8714],0.55,0.152,1.005,0.649,0.688,0.302,1.092,0.706,256.0,474.0
2015-02-20,Ouagadougou,BurkinaFaso,-1.5197,12.3714,[-2.0197000000000003 11.8714 -1.0197 12.8714],0.543,0.127,0.957,0.615,0.697,0.306,1.11,0.71,242.0,498.0
2015-02-21,Ouagadougou,BurkinaFaso,-1.5197,12.3714,[-2.0197000000000003 11.8714 -1.0197 12.8714],0.543,0.127,0.919,0.594,0.714,0.327,1.114,0.729,262.0,467.0
2015-02-22,Ouagadougou,BurkinaFaso,-1.5197,12.3714,[-2.0197000000000003 11.8714 -1.0197 12.8714],0.476,0.115,0.92,0.577,0.688,0.325,1.099,0.721,246.0,503.0
2015-02-23,Ouagadougou,BurkinaFaso,-1.5197,12.3714,[-2.0197000000000003 11.8714 -1.0197 12.8714],0.445,0.081,0.888,0.532,0.669,0.305,1.084,0.696,228.0,477.0
2015-02-24,Ouagadougou,BurkinaFaso,-1.5197,12.3714,[-2.0197000000000003 11.8714 -1.0197 12.8714],0.412,-0.014,0.855,0.481,0.646,0.29,1.072,0.687,242.0,493.0
2015-02-25,Ouagadougou,BurkinaFaso,-1.5197,12.3714,[-2.0197000000000003 11.8714 -1.0197 12.8714],0.365,-0.039,0.796,0.408,0.648,0.289,1.038,0.659,235.0,491.0
2015-02-26,Ouagadougou,BurkinaFaso,-1.5197,12.3714,[-2.0197000000000003 11.8714 -1.0197 12.8714],0.365,-0.022,0.789,0.408,0.611,0.234,1.024,0.631,262.0,520.0
2015-02-27,Ouagadougou,BurkinaFaso,-1.5197,12.3714,[-2.0197000000000003 11.8714 -1.0197 12.8714],0.365,-0.014,0.775,0.398,0.615,0.218,1.021,0.62,263.0,533.0
2015-02-28,Ouagadougou,BurkinaFaso,-1.5197,12.3714,[-2.0197000000000003 11.8714 -1.0197 12.8714],0.364,-0.014,0.727,0.383,0.617,0.191,0.995,0.608,286.0,508.0
2015-03-01,Ouagadougou,BurkinaFaso,-1.5197,12.3714,[-2.0197000000000003 11.8714 -1.0197 12.8714],0.365,-0.014,0.752,0.39,0.609,0.192,1.002,0.605,284.0,536.0
2015-03-02,Ouagadougou,BurkinaFaso,-1.5197,12.3714,[-2.0197000000000003 11.8714 -1.0197 12.8714],0.434,0.081,0.776,0.433,0.617,0.205,0.981,0.604,288.0,512.0
2015-03-03,Ouagadougou,BurkinaFaso,-1.5197,12.3714,[-2.0197000000000003 11.8714 -1.0197 12.8714],0.452,0.081,0.794,0.455,0.619,0.194,0.982,0.604,297.0,538.0
2015-03-04,Ouagadougou,BurkinaFaso,-1.5197,12.3714,[-2.0197000000000003 11.8714 -1.0197 12.8714],0.453,0.091,0.839,0.469,0.578,0.18,0.98,0.591,283.0,522.0
2015-03-05,Ouagadougou,BurkinaFaso,-1.5197,12.3714,[-2.0197000000000003 11.8714 -1.0197 12.8714],0.463,0.103,0.855,0.482,0.602,0.209,0.979,0.599,273.0,533.0
2015-03-06,Ouagadougou,BurkinaFaso,-1.5197,12.3714,[-2.0197000000000003 11.8714 -1.0197 12.8714],0.463,0.094,0.837,0.46,0.601,0.221,0.994,0.613,274.0,532.0
2015-03-07,Ouagadougou,BurkinaFaso,-1.5197,12.3714,[-2.0197000000000003 11.8714 -1.0197 12.8714],0.486,0.133,0.888,0.497,0.604,0.217,0.992,0.61,295.0,517.0
2015-03-08,Ouagadougou,BurkinaFaso,-1.5197,12.3714,[-2.0197000000000003 11.8714 -1.0197 12.8714],0.486,0.129,0.899,0.501,0.614,0.225,1.008,0.613,278.0,541.0
2015-03-09,Ouagadougou,BurkinaFaso,-1.5197,12.3714,[-2.0197000000000003 11.8714 -1.0197 12.8714],0.543,0.155,1.003,0.562,0.645,0.225,1.06,0.646,298.0,508.0
2015-03-10,Ouagadougou,BurkinaFaso,-1.5197,12.3714,[-2.0197000000000003 11.8714 -1.0197 12.8714],0.56,0.187,1.003,0.579,0.668,0.266,1.084,0.68,283.0,542.0
2015-03-11,Ouagadougou,BurkinaFaso,-1.5197,12.3714,[-2.0197000000000003 11.8714 -1.0197 12.8714],0.613,0.265,1.026,0.624,0.709,0.292,1.123,0.712,255.0,517.0
2015-03-12,Ouagadougou,BurkinaFaso,-1.5197,12.3714,[-2.0197000000000003 11.8714 -1.0197 12.8714],0.657,0.307,1.035,0.667,0.745,0.318,1.181,0.76,256.0,533.0
2015-03-13,Ouagadougou,BurkinaFaso,-1.5197,12.3714,[-2.0197000000000003 11.8714 -1.0197 12.8714],0.677,0.35,1.062,0.702,0.779,0.408,1.228,0.815,246.0,534.0
2015-03-14,Ouagadougou,BurkinaFaso,-1.5197,12.3714,[-2.0197000000000003 11.8714 -1.0197 12.8714],0.719,0.374,1.094,0.736,0.816,0.445,1.284,0.854,251.0,524.0
2015-03-15,Ouagadougou,BurkinaFaso,-1.5197,12.3714,[-2.0197000000000003 11.8714 -1.0197 12.8714],0.788,0.413,1.119,0.788,0.835,0.459,1.302,0.878,228.0,497.0
2015-03-16,Ouagadougou,BurkinaFaso,-1.5197,12.3714,[-2.0197000000000003 11.8714 -1.0197 12.8714],0.794,0.419,1.155,0.814,0.854,0.47,1.369,0.907,248.0,472.0
2015-03-17,Ouagadougou,BurkinaFaso,-1.5197,12.3714,[-2.0197000000000003 11.8714 -1.0197 12.8714],0.965,0.432,1.276,0.862,0.881,0.465,1.37,0.914,227.0,496.0
2015-03-18,Ouagadougou,BurkinaFaso,-1.5197,12.3714,[-2.0197000000000003 11.8714 -1.0197 12.8714],1.003,0.465,1.326,0.895,0.903,0.487,1.411,0.932,208.0,469.0
2015-03-19,Ouagadougou,BurkinaFaso,-1.5197,12.3714,[-2.0197000000000003 11.8714 -1.0197 12.8714],1.019,0.486,1.409,0.94,0.901,0.486,1.426,0.942,221.0,495.0
2015-03-20,Ouagadougou,BurkinaFaso,-1.5197,12.3714,[-2.0197000000000003 11.8714 -1.0197 12.8714],1.003,0.47,1.331,0.936,0.913,0.484,1.428,0.947,223.0,480.0
2015-03-21,Ouagadougou,BurkinaFaso,-1.5197,12.3714,[-2.0197000000000003 11.8714 -1.0197 12.8714],1.018,0.51,1.358,0.967,0.863,0.432,1.392,0.92,226.0,488.0
2015-03-22,Ouagadougou,BurkinaFaso,-1.5197,12.3714,[-2.0197000000000003 11.8714 -1.0197 12.8714],0.92,0.432,1.33,0.875,0.886,0.445,1.381,0.91,226.0,484.0
2015-03-23,Ouagadougou,BurkinaFaso,-1.5197,12.3714,[-2.0197000000000003 11.8714 -1.0197 12.8714],0.915,0.432,1.358,0.887,0.885,0.44,1.367,0.905,249.0,469.0
2015-03-24,Ouagadougou,BurkinaFaso,-1.5197,12.3714,[-2.0197000000000003 11.8714 -1.0197 12.8714],0.874,0.408,1.409,0.848,0.88,0.434,1.398,0.897,233.0,493.0
2015-03-25,Ouagadougou,BurkinaFaso,-1.5197,12.3714,[-2.0197000000000003 11.8714 -1.0197 12.8714],0.88,0.395,1.356,0.85,0.872,0.413,1.37,0.899,252.0,462.0
2015-03-26,Ouagadougou,BurkinaFaso,-1.5197,12.3714,[-2.0197000000000003 11.8714 -1.0197 12.8714],0.856,0.387,1.356,0.839,0.885,0.418,1.369,0.906,248.0,494.0
2015-03-27,Ouagadougou,BurkinaFaso,-1.5197,12.3714,[-2.0197000000000003 11.8714 -1.0197 12.8714],0.846,0.42,1.28,0.836,0.88,0.442,1.359,0.907,248.0,469.0
2015-03-28,Ouagadougou,BurkinaFaso,-1.5197,12.3714,[-2.0197000000000003 11.8714 -1.0197 12.8714],0.799,0.358,1.28,0.807,0.897,0.434,1.366,0.91,264.0,482.0
2015-03-29,Ouagadougou,BurkinaFaso,-1.5197,12.3714,[-2.0197000000000003 11.8714 -1.0197 12.8714],0.763,0.355,1.251,0.779,0.913,0.465,1.388,0.922,256.0,482.0
2015-03-30,Ouagadougou,BurkinaFaso,-1.5197,12.3714,[-2.0197000000000003 11.8714 -1.0197 12.8714],0.766,0.355,1.28,0.797,0.902,0.434,1.388,0.927,270.0,515.0
2015-03-31,Ouagadougou,BurkinaFaso,-1.5197,12.3714,[-2.0197000000000003 11.8714 -1.0197 12.8714],0.763,0.326,1.238,0.768,0.871,0.411,1.333,0.897,251.0,530.0
2015-04-01,Ouagadougou,BurkinaFaso,-1.5197,12.3714,[-2.0197000000000003 11.8714 -1.0197 12.8714],0.763,0.326,1.238,0.769,0.886,0.412,1.344,0.908,253.0,506.0
2015-04-02,Ouagadougou,BurkinaFaso,-1.5197,12.3714,[-2.0197000000000003 11.8714 -1.0197 12.8714],0.674,0.278,1.128,0.721,0.896,0.431,1.364,0.933,243.0,534.0
2015-04-03,Ouagadougou,BurkinaFaso,-1.5197,12.3714,[-2.0197000000000003 11.8714 -1.0197 12.8714],0.572,0.26,1.071,0.649,0.871,0.408,1.336,0.899,235.0,508.0
2015-04-04,Ouagadougou,BurkinaFaso,-1.5197,12.3714,[-2.0197000000000003 11.8714 -1.0197 12.8714],0.572,0.191,1.059,0.624,0.869,0.388,1.329,0.892,249.0,534.0
2015-04-05,Ouagadougou,BurkinaFaso,-1.5197,12.3714,[-2.0197000000000003 11.8714 -1.0197 12.8714],0.599,0.191,1.108,0.662,0.889,0.413,1.365,0.915,230.0,522.0
2015-04-06,Ouagadougou,BurkinaFaso,-1.5197,12.3714,[-2.0197000000000003 11.8714 -1.0197 12.8714],0.713,0.35,1.156,0.77,0.911,0.438,1.374,0.935,226.0,533.0
2015-04-07,Ouagadougou,BurkinaFaso,-1.5197,12.3714,[-2.0197000000000003 11.8714 -1.0197 12.8714],0.707,0.35,1.128,0.734,0.915,0.436,1.365,0.934,227.0,532.0
2015-04-08,Ouagadougou,BurkinaFaso,-1.5197,12.3714,[-2.0197000000000003 11.8714 -1.0197 12.8714],0.65,0.279,1.126,0.692,0.896,0.421,1.341,0.909,248.0,517.0
2015-04-09,Ouagadougou,BurkinaFaso,-1.5197,12.3714,[-2.0197000000000003 11.8714 -1.0197 12.8714],0.589,0.265,1.121,0.666,0.868,0.401,1.343,0.895,233.0,541.0
2015-04-10,Ouagadougou,BurkinaFaso,-1.5197,12.3714,[-2.0197000000000003 11.8714 -1.0197 12.8714],0.572,0.265,1.081,0.644,0.848,0.384,1.309,0.869,252.0,511.0
2015-04-11,Ouagadougou,BurkinaFaso,-1.5197,12.3714,[-2.0197000000000003 11.8714 -1.0197 12.8714],0.534,0.172,1.081,0.627,0.828,0.354,1.303,0.856,233.0,545.0
2015-04-12,Ouagadougou,BurkinaFaso,-1.5197,12.3714,[-2.0197000000000003 11.8714 -1.0197 12.8714],0.578,0.27,1.098,0.655,0.798,0.347,1.279,0.837,218.0,522.0
2015-04-13,Ouagadougou,BurkinaFaso,-1.5197,12.3714,[-2.0197000000000003 11.8714 -1.0197 12.8714],0.597,0.32,1.128,0.701,0.774,0.332,1.247,0.82,234.0,537.0
2015-04-14,Ouagadougou,BurkinaFaso,-1.5197,12.3714,[-2.0197000000000003 11.8714 -1.0197 12.8714],0.632,0.344,1.126,0.712,0.799,0.355,1.228,0.819,238.0,534.0
2015-04-15,Ouagadougou,BurkinaFaso,-1.5197,12.3714,[-2.0197000000000003 11.8714 -1.0197 12.8714],0.632,0.32,1.126,0.7,0.831,0.358,1.246,0.832,262.0,524.0
2015-04-16,Ouagadougou,BurkinaFaso,-1.5197,12.3714,[-2.0197000000000003 11.8714 -1.0197 12.8714],0.632,0.32,1.126,0.699,0.819,0.351,1.245,0.824,260.0,498.0
2015-04-17,Ouagadougou,BurkinaFaso,-1.5197,12.3714,[-2.0197000000000003 11.8714 -1.0197 12.8714],0.632,0.344,1.126,0.706,0.801,0.347,1.196,0.794,274.0,475.0
2015-04-18,Ouagadougou,BurkinaFaso,-1.5197,12.3714,[-2.0197000000000003 11.8714 -1.0197 12.8714],0.707,0.388,1.158,0.774,0.843,0.361,1.219,0.827,251.0,503.0
2015-04-19,Ouagadougou,BurkinaFaso,-1.5197,12.3714,[-2.0197000000000003 11.8714 -1.0197 12.8714],0.696,0.343,1.118,0.741,0.854,0.373,1.234,0.842,240.0,479.0
2015-04-20,Ouagadougou,BurkinaFaso,-1.5197,12.3714,[-2.0197000000000003 11.8714 -1.0197 12.8714],0.65,0.307,0.992,0.701,0.856,0.375,1.24,0.853,235.0,505.0
2015-04-21,Ouagadougou,BurkinaFaso,-1.5197,12.3714,[-2.0197000000000003 11.8714 -1.0197 12.8714],0.632,0.27,0.958,0.656,0.846,0.37,1.223,0.84,232.0,487.0
2015-04-22,Ouagadougou,BurkinaFaso,-1.5197,12.3714,[-2.0197000000000003 11.8714 -1.0197 12.8714],0.598,0.278,0.958,0.671,0.846,0.378,1.239,0.858,236.0,495.0
2015-04-23,Ouagadougou,BurkinaFaso,-1.5197,12.3714,[-2.0197000000000003 11.8714 -1.0197 12.8714],0.678,0.344,1.069,0.741,0.883,0.392,1.278,0.892,234.0,494.0
2015-04-24,Ouagadougou,BurkinaFaso,-1.5197,12.3714,[-2.0197000000000003 11.8714 -1.0197 12.8714],0.678,0.344,1.121,0.767,0.875,0.408,1.288,0.899,255.0,480.0
2015-04-25,Ouagadougou,BurkinaFaso,-1.5197,12.3714,[-2.0197000000000003 11.8714 -1.0197 12.8714],0.727,0.352,1.143,0.8,0.881,0.416,1.291,0.9,244.0,502.0
2015-04-26,Ouagadougou,BurkinaFaso,-1.5197,12.3714,[-2.0197000000000003 11.8714 -1.0197 12.8714],0.691,0.344,1.13,0.771,0.891,0.435,1.304,0.908,264.0,470.0
2015-04-27,Ouagadougou,BurkinaFaso,-1.5197,12.3714,[-2.0197000000000003 11.8714 -1.0197 12.8714],0.702,0.29,1.13,0.774,0.896,0.427,1.272,0.898,246.0,504.0
2015-04-28,Ouagadougou,BurkinaFaso,-1.5197,12.3714,[-2.0197000000000003 11.8714 -1.0197 12.8714],0.65,0.28,1.036,0.731,0.894,0.438,1.267,0.906,224.0,478.0
2015-04-29,Ouagadougou,BurkinaFaso,-1.5197,12.3714,[-2.0197000000000003 11.8714 -1.0197 12.8714],0.614,0.251,1.003,0.687,0.885,0.437,1.275,0.899,239.0,492.0
2015-04-30,Ouagadougou,BurkinaFaso,-1.5197,12.3714,[-2.0197000000000003 11.8714 -1.0197 12.8714],0.633,0.278,1.003,0.705,0.863,0.455,1.261,0.897,231.0,491.0
2015-05-01,Ouagadougou,BurkinaFaso,-1.5197,12.3714,[-2.0197000000000003 11.8714 -1.0197 12.8714],0.644,0.28,1.023,0.707,0.864,0.453,1.264,0.901,259.0,520.0
2015-05-02,Ouagadougou,BurkinaFaso,-1.5197,12.3714,[-2.0197000000000003 11.8714 -1.0197 12.8714],0.662,0.278,1.088,0.748,0.86,0.455,1.275,0.9,270.0,530.0
2015-05-03,Ouagadougou,BurkinaFaso,-1.5197,12.3714,[-2.0197000000000003 11.8714 -1.0197 12.8714],0.754,0.32,1.095,0.778,0.875,0.462,1.268,0.898,293.0,509.0
2015-05-04,Ouagadougou,BurkinaFaso,-1.5197,12.3714,[-2.0197000000000003 11.8714 -1.0197 12.8714],0.792,0.363,1.242,0.839,0.87,0.459,1.296,0.897,271.0,533.0
2015-05-05,Ouagadougou,BurkinaFaso,-1.5197,12.3714,[-2.0197000000000003 11.8714 -1.0197 12.8714],0.853,0.477,1.359,0.903,0.883,0.486,1.305,0.899,287.0,508.0
2015-05-06,Ouagadougou,BurkinaFaso,-1.5197,12.3714,[-2.0197000000000003 11.8714 -1.0197 12.8714],0.864,0.499,1.439,0.951,0.89,0.471,1.345,0.92,290.0,539.0
2015-05-07,Ouagadougou,BurkinaFaso,-1.5197,12.3714,[-2.0197000000000003 11.8714 -1.0197 12.8714],0.864,0.511,1.482,0.973,0.887,0.476,1.339,0.924,277.0,521.0
2015-05-08,Ouagadougou,BurkinaFaso,-1.5197,12.3714,[-2.0197000000000003 11.8714 -1.0197 12.8714],0.864,0.511,1.459,0.963,0.924,0.501,1.367,0.951,277.0,530.0
2015-05-09,Ouagadougou,BurkinaFaso,-1.5197,12.3714,[-2.0197000000000003 11.8714 -1.0197 12.8714],0.866,0.554,1.436,0.956,0.931,0.528,1.369,0.956,278.0,527.0
2015-05-10,Ouagadougou,BurkinaFaso,-1.5197,12.3714,[-2.0197000000000003 11.8714 -1.0197 12.8714],0.864,0.527,1.38,0.941,0.95,0.571,1.376,0.981,291.0,513.0
2015-05-11,Ouagadougou,BurkinaFaso,-1.5197,12.3714,[-2.0197000000000003 11.8714 -1.0197 12.8714],0.885,0.556,1.436,0.981,0.948,0.554,1.383,0.975,280.0,534.0
2015-05-12,Ouagadougou,BurkinaFaso,-1.5197,12.3714,[-2.0197000000000003 11.8714 -1.0197 12.8714],0.897,0.583,1.407,0.997,0.975,0.572,1.414,1.002,300.0,502.0
2015-05-13,Ouagadougou,BurkinaFaso,-1.5197,12.3714,[-2.0197000000000003 11.8714 -1.0197 12.8714],0.941,0.625,1.426,1.02,0.962,0.57,1.377,0.978,288.0,537.0
2015-05-14,Ouagadougou,BurkinaFaso,-1.5197,12.3714,[-2.0197000000000003 11.8714 -1.0197 12.8714],0.96,0.703,1.487,1.063,0.961,0.597,1.402,0.998,268.0,514.0
2015-05-15,Ouagadougou,BurkinaFaso,-1.5197,12.3714,[-2.0197000000000003 11.8714 -1.0197 12.8714],1.042,0.738,1.491,1.102,0.994,0.573,1.415,1.012,285.0,528.0
2015-05-16,Ouagadougou,BurkinaFaso,-1.5197,12.3714,[-2.0197000000000003 11.8714 -1.0197 12.8714],1.125,0.783,1.545,1.169,0.987,0.572,1.401,1.0,276.0,529.0
2015-05-17,Ouagadougou,BurkinaFaso,-1.5197,12.3714,[-2.0197000000000003 11.8714 -1.0197 12.8714],1.125,0.783,1.528,1.158,1.002,0.587,1.425,1.019,266.0,522.0
2015-05-18,Ouagadougou,BurkinaFaso,-1.5197,12.3714,[-2.0197000000000003 11.8714 -1.0197 12.8714],1.14,0.772,1.528,1.163,1.0,0.578,1.447,1.028,243.0,492.0
2015-05-19,Ouagadougou,BurkinaFaso,-1.5197,12.3714,[-2.0197000000000003 11.8714 -1.0197 12.8714],1.125,0.738,1.519,1.135,1.003,0.568,1.463,1.028,265.0,472.0
2015-05-20,Ouagadougou,BurkinaFaso,-1.5197,12.3714,[-2.0197000000000003 11.8714 -1.0197 12.8714],1.131,0.717,1.491,1.135,0.982,0.527,1.433,1.004,243.0,496.0
2015-05-21,Ouagadougou,BurkinaFaso,-1.5197,12.3714,[-2.0197000000000003 11.8714 -1.0197 12.8714],1.131,0.738,1.491,1.135,0.961,0.538,1.396,0.993,241.0,472.0
2015-05-22,Ouagadougou,BurkinaFaso,-1.5197,12.3714,[-2.0197000000000003 11.8714 -1.0197 12.8714],1.153,0.784,1.491,1.139,0.97,0.539,1.416,0.994,251.0,502.0
2015-05-23,Ouagadougou,BurkinaFaso,-1.5197,12.3714,[-2.0197000000000003 11.8714 -1.0197 12.8714],1.131,0.769,1.482,1.13,0.909,0.513,1.385,0.956,248.0,483.0
2015-05-24,Ouagadougou,BurkinaFaso,-1.5197,12.3714,[-2.0197000000000003 11.8714 -1.0197 12.8714],1.149,0.76,1.482,1.135,0.928,0.509,1.382,0.962,253.0,492.0
2015-05-25,Ouagadougou,BurkinaFaso,-1.5197,12.3714,[-2.0197000000000003 11.8714 -1.0197 12.8714],1.153,0.769,1.494,1.16,0.901,0.503,1.359,0.955,256.0,491.0
2015-05-26,Ouagadougou,BurkinaFaso,-1.5197,12.3714,[-2.0197000000000003 11.8714 -1.0197 12.8714],1.131,0.738,1.491,1.133,0.894,0.487,1.337,0.944,274.0,479.0
2015-05-27,Ouagadougou,BurkinaFaso,-1.5197,12.3714,[-2.0197000000000003 11.8714 -1.0197 12.8714],1.107,0.724,1.494,1.131,0.877,0.474,1.355,0.945,258.0,502.0
2015-05-28,Ouagadougou,BurkinaFaso,-1.5197,12.3714,[-2.0197000000000003 11.8714 -1.0197 12.8714],1.073,0.731,1.515,1.136,0.882,0.485,1.394,0.957,278.0,470.0
2015-05-29,Ouagadougou,BurkinaFaso,-1.5197,12.3714,[-2.0197000000000003 11.8714 -1.0197 12.8714],1.072,0.724,1.521,1.134,0.865,0.46,1.342,0.935,265.0,501.0
2015-05-30,Ouagadougou,BurkinaFaso,-1.5197,12.3714,[-2.0197000000000003 11.8714 -1.0197 12.8714],1.104,0.724,1.494,1.126,0.884,0.463,1.347,0.934,245.0,475.0